PHSYB EHRD-EHEH

Flight info

Callsign PHSYB
Flight time 0h 22m
Altitude 7000
Route INKET
Aircraft TBM9/L-SDFGRWY/S

Departure

Time 2026-04-30 13:04
Airport Rotterdam The Hague Airport (EHRD)

Arrival

Time 2026-04-30 13:27
Airport Eindhoven Airport (EHEH)
Time Latitude Longitude Altitude Speed Heading
2026-04-30 12:47 51.94916 4.42643 -5 ft 0 kts 234°
2026-04-30 13:01 51.94927 4.42640 -5 ft 5 kts 58°
2026-04-30 13:02 51.94949 4.42695 -5 ft 7 kts 56°
2026-04-30 13:02 51.94990 4.42742 -5 ft 9 kts 54°
2026-04-30 13:02 51.95027 4.42835 -5 ft 11 kts 56°
2026-04-30 13:02 51.95072 4.42948 -5 ft 13 kts 58°
2026-04-30 13:03 51.95108 4.42990 -4 ft 7 kts 292°
2026-04-30 13:03 51.95148 4.42912 -4 ft 11 kts 327°
2026-04-30 13:03 51.95221 4.42877 -3 ft 12 kts 40°
2026-04-30 13:03 51.95249 4.42926 -3 ft 10 kts 56°
2026-04-30 13:04 51.95413 4.43339 -6 ft 77 kts 58°
2026-04-30 13:04 51.95819 4.44209 208 ft 111 kts 58°
2026-04-30 13:04 51.96282 4.45354 583 ft 131 kts 69°
2026-04-30 13:04 51.96694 4.46817 965 ft 152 kts 70°
2026-04-30 13:05 51.97195 4.48439 1374 ft 167 kts 68°
2026-04-30 13:05 51.97753 4.50118 1771 ft 173 kts 67°
2026-04-30 13:05 51.98287 4.51891 2163 ft 170 kts 81°
2026-04-30 13:06 51.97553 4.55314 2952 ft 169 kts 133°
2026-04-30 13:06 51.96590 4.56574 3008 ft 185 kts 140°
2026-04-30 13:06 51.95552 4.57885 3016 ft 189 kts 139°
2026-04-30 13:06 51.94526 4.59209 3005 ft 187 kts 139°
2026-04-30 13:07 51.93497 4.60473 3005 ft 185 kts 141°
2026-04-30 13:07 51.92450 4.61693 3003 ft 185 kts 142°
2026-04-30 13:07 51.91441 4.62949 2998 ft 183 kts 131°
2026-04-30 13:07 51.90642 4.64526 2994 ft 182 kts 131°
2026-04-30 13:08 51.89715 4.65924 2997 ft 182 kts 137°
2026-04-30 13:08 51.88743 4.67241 2996 ft 182 kts 137°
2026-04-30 13:08 51.87765 4.68556 2995 ft 182 kts 137°
2026-04-30 13:08 51.86795 4.69890 2974 ft 183 kts 137°
2026-04-30 13:09 51.85823 4.71228 2974 ft 183 kts 137°
2026-04-30 13:09 51.84862 4.72534 2972 ft 182 kts 137°
2026-04-30 13:09 51.83894 4.73851 2970 ft 181 kts 137°
2026-04-30 13:09 51.82926 4.75169 2968 ft 181 kts 137°
2026-04-30 13:10 51.81967 4.76476 2975 ft 183 kts 137°
2026-04-30 13:10 51.81054 4.77882 2968 ft 181 kts 129°
2026-04-30 13:10 51.80221 4.79426 2967 ft 182 kts 130°
2026-04-30 13:10 51.79372 4.80948 2967 ft 183 kts 130°
2026-04-30 13:11 51.78526 4.82491 2974 ft 182 kts 129°
2026-04-30 13:11 51.77683 4.84027 2966 ft 183 kts 131°
2026-04-30 13:11 51.76836 4.85532 2967 ft 184 kts 131°
2026-04-30 13:11 51.75990 4.87070 2976 ft 184 kts 129°
2026-04-30 13:12 51.75137 4.88641 2971 ft 184 kts 130°
2026-04-30 13:12 51.74281 4.90157 2982 ft 184 kts 131°
2026-04-30 13:12 51.73433 4.91703 2976 ft 184 kts 129°
2026-04-30 13:13 51.71741 4.94770 2968 ft 183 kts 131°
2026-04-30 13:13 51.70891 4.96290 2966 ft 182 kts 130°
2026-04-30 13:13 51.69207 4.99353 2971 ft 182 kts 130°
2026-04-30 13:14 51.68376 5.00840 2978 ft 180 kts 130°
2026-04-30 13:14 51.67541 5.02335 2972 ft 179 kts 130°
2026-04-30 13:14 51.65882 5.05327 2968 ft 179 kts 130°
2026-04-30 13:15 51.65049 5.06841 2969 ft 192 kts 130°
2026-04-30 13:15 51.63171 5.10178 2979 ft 195 kts 130°
2026-04-30 13:15 51.62292 5.11777 2974 ft 185 kts 130°
2026-04-30 13:16 51.61454 5.13279 2967 ft 179 kts 130°
2026-04-30 13:16 51.60625 5.14760 2963 ft 176 kts 130°
2026-04-30 13:16 51.59865 5.16286 2969 ft 175 kts 129°
2026-04-30 13:17 51.57590 5.17351 2983 ft 187 kts 182°
2026-04-30 13:17 51.56316 5.16998 2975 ft 189 kts 182°
2026-04-30 13:17 51.53724 5.16268 2977 ft 189 kts 183°
2026-04-30 13:18 51.52422 5.15897 2980 ft 190 kts 184°
2026-04-30 13:18 51.49835 5.15125 2994 ft 191 kts 183°
2026-04-30 13:18 51.48531 5.14727 2997 ft 190 kts 184°
2026-04-30 13:19 51.47222 5.14365 2996 ft 190 kts 184°
2026-04-30 13:19 51.45909 5.13996 3001 ft 190 kts 184°
2026-04-30 13:19 51.44618 5.13620 2990 ft 190 kts 183°
2026-04-30 13:19 51.43313 5.13245 2991 ft 189 kts 183°
2026-04-30 13:20 51.42027 5.12865 2995 ft 190 kts 183°
2026-04-30 13:20 51.40715 5.12480 2992 ft 191 kts 183°
2026-04-30 13:20 51.39411 5.12097 2994 ft 189 kts 183°
2026-04-30 13:20 51.38156 5.12352 2915 ft 180 kts 149°
2026-04-30 13:21 51.37260 5.13689 2662 ft 173 kts 126°
2026-04-30 13:21 51.36586 5.15214 2391 ft 166 kts 123°
2026-04-30 13:21 51.35969 5.16655 2152 ft 149 kts 122°
2026-04-30 13:22 51.34868 5.19081 1997 ft 135 kts 122°
2026-04-30 13:22 51.34283 5.20310 2002 ft 144 kts 123°
2026-04-30 13:22 51.33290 5.23133 2000 ft 151 kts 92°
2026-04-30 13:23 51.33717 5.24647 1985 ft 164 kts 53°
2026-04-30 13:23 51.35599 5.26963 1999 ft 174 kts 44°
2026-04-30 13:24 51.37628 5.29222 1687 ft 181 kts 43°
2026-04-30 13:24 51.39716 5.31561 1190 ft 183 kts 42°
2026-04-30 13:25 51.41585 5.33603 731 ft 136 kts 43°
2026-04-30 13:25 51.42736 5.34882 481 ft 86 kts 52°
2026-04-30 13:26 51.44178 5.36515 154 ft 87 kts 43°
2026-04-30 13:26 51.45019 5.37477 66 ft 52 kts 38°
2026-04-30 13:27 51.45522 5.38028 67 ft 41 kts 37°
2026-04-30 13:28 51.45864 5.38625 66 ft 17 kts 124°
2026-04-30 13:28 51.45789 5.38781 69 ft 0 kts 134°
2026-04-30 13:28 51.45743 5.38779 69 ft 16 kts 212°
2026-04-30 13:29 51.45532 5.38542 67 ft 13 kts 205°
2026-04-30 13:29 51.45503 5.38540 69 ft 0 kts 193°